Wind_Speed
27 26 25 24 23 23 23 22 22 23 24 24 24 24 24 23 22 21 21 22 23 24 24 25 26 27 28 28 28 29 29 29 29 29 30 30 30 31 31 32 32 33 33 33 33 33 33 32 32 32 33 33 33 34 35 36 36 37 38 40 40 41 41 42 42 41 40 39 38 36 35 33 31 30 29 28 27 27 27 27 27 27 26 26 26 27
27 27 25 24 23 24 24 23 22 23 24 24 23 23 23 23 23 22 21 22 22 23 24 25 26 27 28 28 28 29 29 29 29 29 30 30 30 31 31 31 32 32 33 33 33 33 33 33 32 32 32 32 32 33 34 35 36 37 37 38 39 40 40 41 41 41 41 40 39 38 37 36 35 33 32 30 29 28 28 28 28 27 27 27 28 28
28 27 26 25 24 24 24 24 23 23 24 24 24 23 23 24 24 24 23 22 22 23 23 24 25 26 27 27 28 28 29 29 29 29 29 30 30 30 31 31 31 32 32 33 33 33 33 33 32 32 32 32 32 32 33 34 35 36 36 37 39 40 40 40 41 41 41 40 40 39 39 38 37 36 34 33 31 30 29 29 28 28 28 28 29 29
28 27 27 26 25 25 25 25 24 24 24 24 24 24 24 24 24 25 24 23 23 23 23 24 24 25 25 26 27 27 27 28 28 28 28 29 29 30 30 30 31 31 32 32 33 33 33 33 32 32 32 32 31 32 32 33 34 35 36 37 39 40 40 40 40 40 41 41 40 40 40 39 39 38 37 35 34 32 31 30 29 29 29 29 29 30
28 27 26 25 24 25 25 25 25 24 24 23 23 23 22 23 24 24 24 24 24 24 24 24 24 25 25 25 26 26 26 26 27 27 27 28 28 29 29 30 30 31 31 32 32 32 33 33 32 32 32 32 32 32 32 32 33 34 35 37 39 40 41 41 41 41 41 41 41 40 40 39 39 38 38 36 35 34 32 31 30 30 30 30 30 30
29 27 26 25 24 25 26 26 25 25 24 23 23 22 21 21 22 22 22 23 23 24 24 24 25 25 25 26 26 26 26 26 26 27 27 27 28 28 29 29 30 31 31 32 32 32 32 32 32 32 32 32 32 32 32 32 32 33 35 37 38 40 40 41 41 40 40 40 40 39 39 39 39 39 39 37 36 35 33 32 31 31 31 31 31 30
29 28 26 25 26 26 26 26 26 25 24 23 22 21 21 20 20 21 21 22 22 23 24 25 25 25 26 26 26 26 26 26 26 26 26 26 27 27 28 29 30 30 31 32 32 32 33 33 33 33 33 33 32 32 32 33 33 33 34 35 37 38 40 41 41 40 39 39 38 37 37 38 39 39 39 39 38 36 35 34 33 32 32 32 31 30
28 29 28 27 26 26 25 25 25 23 22 22 21 20 20 20 20 20 21 22 23 23 24 24 25 26 27 27 27 26 26 25 25 25 24 24 25 26 26 28 29 30 31 31 32 32 33 33 33 33 33 33 33 33 33 33 33 34 34 34 35 36 38 40 41 40 39 38 37 37 36 36 36 37 37 37 37 36 36 35 34 33 32 32 31 31
28 28 28 28 26 24 24 24 23 22 21 21 20 20 19 19 20 20 21 22 22 23 23 23 24 26 26 26 26 25 25 24 24 23 23 23 23 23 24 25 26 28 29 30 31 31 32 33 33 33 34 34 34 33 33 33 34 34 34 34 34 35 36 38 40 41 40 39 37 36 36 35 35 35 35 35 34 34 35 35 34 34 33 32 32 31
28 27 27 27 26 24 23 23 23 23 22 22 22 21 21 20 20 21 22 22 22 22 22 22 23 24 25 25 24 24 24 24 23 23 23 23 23 23 24 24 25 26 27 28 29 30 31 31 32 33 33 33 34 34 34 34 34 35 35 35 34 34 35 37 39 40 41 40 39 38 37 36 35 34 33 33 33 33 33 33 33 33 34 33 32 31
26 26 25 24 24 24 24 23 23 22 22 22 22 22 22 22 22 22 21 22 23 23 22 22 22 22 22 22 22 22 22 22 22 22 22 23 23 24 24 25 26 26 27 27 28 29 30 31 31 32 33 33 33 33 34 34 35 36 36 36 35 34 35 36 38 40 41 41 41 40 39 37 36 35 34 33 32 32 32 31 31 31 32 32 32 31
23 24 23 23 22 22 23 24 24 22 20 19 19 20 22 24 24 22 21 21 23 23 23 23 22 22 21 21 20 20 20 20 20 20 20 21 21 22 23 24 24 25 26 26 27 28 29 30 31 31 32 32 33 33 33 34 34 35 36 36 36 35 34 35 37 39 41 42 42 41 40 39 37 36 35 34 33 33 32 31 31 31 31 31 31 31
23 23 23 23 22 21 21 21 20 20 20 19 18 19 21 23 24 23 22 22 23 23 23 22 22 22 21 20 19 18 18 19 19 19 18 18 18 19 20 21 21 22 23 23 24 25 26 27 28 29 30 31 32 32 33 33 34 34 35 36 36 35 34 34 35 37 40 42 42 42 41 40 38 37 36 36 35 34 33 32 32 32 31 31 31 32
22 22 22 21 21 22 21 20 19 18 19 20 22 23 24 24 23 22 22 22 23 23 22 21 21 21 21 19 18 17 17 17 17 17 18 18 18 18 18 18 20 20 20 21 22 23 23 23 24 25 27 28 29 30 30 31 32 33 34 35 35 35 34 34 34 35 38 40 41 42 41 40 39 38 37 37 37 36 35 34 33 33 32 32 32 33
20 19 16 15 18 20 21 21 20 20 21 23 23 23 23 22 22 21 20 20 21 21 20 20 20 20 20 19 18 17 17 16 16 16 17 19 19 18 18 18 19 19 19 20 21 22 21 21 22 23 23 24 25 26 27 28 29 30 31 32 34 34 34 33 33 33 35 37 39 40 40 40 39 39 39 38 38 37 36 36 35 34 34 33 33 33
22 19 14 12 15 19 21 21 21 21 22 23 23 22 21 21 21 21 20 20 20 19 17 16 15 15 17 18 18 17 17 17 16 16 17 19 19 19 18 18 19 19 19 19 20 20 20 20 21 21 21 22 22 23 24 26 27 28 29 30 31 32 32 32 31 31 32 34 36 38 39 39 39 39 39 39 39 38 37 36 36 35 34 34 34 33
22 19 16 15 15 18 22 22 22 22 22 22 22 22 21 21 21 21 21 20 19 17 15 12 8 5 8 14 17 17 17 17 17 17 17 19 20 19 18 18 19 19 19 19 19 19 19 19 19 20 20 20 21 21 22 24 25 27 28 28 29 29 30 30 30 30 30 32 35 36 38 38 39 39 39 39 39 38 37 37 36 35 34 34 34 34
20 19 17 16 16 19 21 21 22 22 22 21 21 21 21 21 20 20 20 19 17 15 14 13 9 5 3 7 12 15 16 17 17 17 17 18 19 19 18 18 18 19 19 19 19 19 18 18 18 18 18 18 19 19 20 22 24 25 26 28 28 29 29 29 29 28 29 30 32 35 37 38 38 39 39 39 38 38 37 36 35 34 34 33 33 33
19 19 18 17 18 20 21 21 21 21 20 19 19 19 19 20 19 19 19 18 18 17 15 13 12 12 10 11 12 14 14 16 17 16 16 17 17 17 17 17 18 19 19 19 19 19 18 18 18 18 18 18 19 20 21 22 23 24 25 27 28 29 29 29 29 28 28 28 30 33 36 37 38 39 39 39 38 37 36 35 34 33 33 33 33 33
17 18 19 18 18 19 20 21 21 21 20 19 18 17 17 18 18 18 18 18 18 18 18 16 15 16 16 17 16 15 14 15 15 15 15 15 16 16 16 16 17 18 18 19 19 18 18 18 18 18 19 19 20 21 22 22 22 23 24 25 27 28 29 30 30 29 28 27 27 29 33 36 38 39 39 38 37 36 35 34 33 33 32 32 33 33
18 16 17 17 17 17 18 20 21 21 21 20 18 17 17 17 17 17 18 18 18 18 18 17 18 19 19 18 17 16 14 14 15 14 13 14 15 15 15 16 16 17 18 19 19 18 17 18 18 19 20 21 21 22 22 23 23 24 24 25 26 27 28 29 30 30 29 27 26 27 29 34 37 38 38 37 37 36 34 33 32 32 32 32 32 33
25 22 20 18 17 18 19 21 22 22 21 20 18 17 17 17 16 17 18 18 18 18 19 19 20 20 20 18 17 17 15 15 16 15 13 11 12 15 15 15 16 17 18 18 18 17 17 18 19 20 21 22 22 22 23 23 24 24 25 25 26 26 27 28 30 31 31 29 27 25 26 30 34 36 37 36 35 35 33 33 32 32 32 32 32 33
31 31 29 26 23 22 23 24 25 24 23 22 21 21 20 19 19 18 19 18 18 19 20 21 21 20 19 18 17 17 16 16 17 16 13 8 9 14 14 14 14 16 17 17 17 16 17 18 19 21 22 22 22 22 23 23 24 24 25 25 26 26 27 28 29 30 31 30 28 27 25 26 29 32 34 34 34 33 32 32 32 31 31 32 32 33
31 31 30 29 28 27 27 26 25 25 25 24 24 23 23 23 22 21 20 19 18 18 18 18 17 16 17 17 17 16 16 16 16 16 14 11 12 14 15 14 14 15 16 16 16 16 16 17 18 20 21 22 22 23 23 23 24 24 25 25 26 27 27 28 29 29 30 30 30 28 27 25 26 28 30 32 32 32 32 31 31 31 31 32 32 33
30 30 29 29 29 29 28 27 26 26 25 25 25 25 25 24 24 23 22 20 18 16 15 14 13 13 15 16 16 16 16 16 16 16 15 12 14 16 16 15 14 14 15 15 15 15 15 16 18 19 20 22 22 23 23 24 24 24 24 25 26 27 27 28 28 29 30 30 31 30 29 27 26 26 27 29 30 30 30 31 31 31 31 32 33 33
31 30 30 30 29 28 28 27 27 26 26 26 26 26 25 24 23 22 21 20 17 15 14 11 10 11 15 15 15 15 16 16 17 18 17 14 13 15 16 15 14 14 14 14 14 14 14 16 17 18 20 22 23 23 23 23 24 24 24 24 25 26 27 27 28 28 29 30 31 31 31 30 28 27 26 27 28 28 29 29 30 30 31 31 32 33
33 32 32 31 30 29 29 28 28 27 27 26 26 26 25 24 22 20 19 19 18 16 13 8 7 9 12 12 13 15 16 16 17 18 18 15 13 12 15 15 14 13 13 14 14 14 14 15 16 18 19 21 22 23 23 23 23 23 23 23 24 25 26 27 27 28 29 30 31 31 31 31 30 29 28 27 27 27 27 28 28 29 29 30 31 32
31 31 31 31 30 30 29 29 29 28 28 27 27 26 26 24 21 18 18 19 18 16 14 9 7 7 6 7 11 15 16 16 16 18 18 16 12 11 14 14 13 13 12 13 14 15 15 16 17 17 18 19 21 22 22 22 22 22 22 22 23 23 24 25 26 27 28 29 30 31 31 31 31 30 30 29 28 27 27 27 27 28 28 29 30 30
28 29 29 28 28 28 28 28 28 28 27 27 27 27 26 25 22 20 19 19 17 15 13 11 9 8 7 10 13 14 14 15 17 18 18 15 12 13 14 13 12 12 11 11 12 13 14 15 16 17 17 18 19 20 21 21 21 21 21 21 21 22 23 24 25 26 27 28 29 30 30 31 31 31 30 30 29 28 28 27 27 28 28 29 30 30
24 24 25 26 26 26 26 27 27 27 26 26 25 25 25 25 24 22 21 19 16 15 13 12 12 11 10 9 8 8 10 15 17 18 19 15 12 13 14 13 12 12 10 8 6 7 9 12 14 16 17 17 18 18 19 19 19 19 19 19 20 20 22 23 24 25 26 27 28 29 30 30 31 31 31 31 30 30 29 29 29 30 30 30 30 29
20 21 22 23 24 24 25 25 25 25 25 24 23 23 23 23 22 22 21 19 17 16 15 13 13 13 12 6 3 3 4 12 17 19 20 16 13 13 13 12 12 13 12 9 4 1 3 6 8 11 13 15 16 16 17 17 17 17 17 17 18 19 20 21 22 23 24 26 27 27 28 29 30 31 31 32 32 32 32 32 32 32 31 29 28 25
20 19 20 20 21 22 22 22 22 22 22 22 22 22 22 21 20 20 20 19 19 18 17 16 15 15 15 10 7 5 5 10 15 19 21 18 15 14 14 13 12 12 13 12 9 4 2 2 4 6 9 11 13 14 15 15 15 15 15 15 16 17 17 18 19 21 22 24 25 26 27 28 29 30 31 32 32 33 33 34 33 32 30 27 24 21
20 19 19 19 19 19 20 20 20 20 20 20 20 21 21 21 21 20 20 20 19 19 18 17 16 16 16 15 14 13 12 12 13 17 21 19 15 13 13 13 13 12 12 13 13 10 7 5 5 7 7 8 10 11 12 13 14 14 14 14 14 14 14 15 16 18 19 20 22 23 25 26 27 28 29 30 31 31 32 32 31 30 27 24 21 18
20 19 18 18 17 18 18 19 19 19 19 18 18 19 20 21 21 21 21 21 21 21 20 19 18 17 16 15 15 15 16 14 14 17 20 20 16 13 13 13 13 12 11 11 12 12 10 10 9 8 7 8 9 10 11 12 12 13 13 13 12 12 12 12 13 15 17 18 19 21 22 24 25 26 26 27 27 28 28 28 28 27 25 22 20 17
18 18 17 17 16 16 17 17 17 17 18 18 18 18 18 19 20 21 21 21 22 22 22 22 21 20 19 16 14 14 14 15 15 17 20 21 18 14 13 13 14 13 11 11 10 9 8 10 11 9 8 8 8 9 10 11 12 12 12 12 12 11 11 11 12 13 15 16 17 18 19 21 22 23 24 24 25 25 25 25 25 26 25 23 21 19
15 15 15 15 15 15 16 16 16 16 17 17 17 17 18 18 19 19 20 21 21 22 23 23 23 23 23 22 19 17 16 16 16 17 20 21 20 16 14 14 14 14 13 12 11 9 7 8 10 10 9 7 6 7 9 10 11 11 12 12 12 11 11 11 11 12 13 13 14 15 16 18 19 20 21 22 23 23 23 24 24 25 25 25 24 23
13 14 14 14 15 15 15 16 16 16 17 17 17 17 18 18 18 19 19 20 20 21 22 23 24 25 25 25 24 22 20 18 16 17 19 21 21 19 16 15 15 15 15 13 12 11 9 7 7 8 9 7 6 6 7 8 10 11 11 11 11 11 11 11 12 12 13 13 13 13 14 15 16 17 18 19 21 22 23 23 24 25 26 26 27 27
13 13 14 14 15 15 15 16 17 17 17 17 17 17 18 18 18 19 19 19 20 20 21 21 23 24 25 26 26 25 23 21 18 18 19 21 22 20 18 16 16 16 16 16 14 13 11 6 4 4 4 7 9 9 9 8 9 10 11 11 11 11 11 11 12 12 13 14 13 13 13 13 14 14 15 16 18 20 21 22 23 24 25 26 28 28
12 13 14 15 15 16 16 16 16 17 17 17 17 17 17 17 18 19 19 19 19 19 20 20 21 22 24 25 26 26 25 23 21 20 20 21 22 21 20 18 17 17 17 17 16 15 13 10 7 4 3 5 8 10 11 10 10 10 10 10 11 12 12 12 12 13 13 14 14 14 14 14 14 14 14 15 16 17 18 19 20 22 23 24 25 27
13 13 14 15 16 16 17 16 16 16 15 16 16 16 16 16 16 17 18 18 18 18 19 19 20 20 21 22 23 24 25 25 24 23 22 22 22 22 20 19 17 17 17 17 16 16 15 13 12 11 10 7 7 9 10 11 11 11 10 9 9 10 12 13 13 13 13 14 14 14 15 15 15 15 15 16 16 17 17 18 18 19 20 21 22 22
13 14 14 15 16 16 17 16 16 15 15 14 14 14 15 15 15 15 16 16 16 16 17 17 18 18 19 20 21 22 23 25 25 25 24 24 24 23 22 20 18 17 17 16 16 16 16 15 14 13 13 11 10 10 10 11 12 12 12 11 10 11 12 13 14 14 14 14 14 15 15 15 16 16 16 16 17 17 17 18 18 18 19 20 20 20
13 14 14 14 15 15 16 16 16 15 15 15 14 14 15 15 15 14 14 14 14 15 15 15 15 15 16 17 18 20 21 23 24 25 26 26 26 25 23 22 20 18 17 16 16 16 17 16 15 14 13 13 11 10 10 11 12 13 13 13 12 11 11 13 15 15 15 15 15 15 15 15 15 16 16 17 17 17 17 18 18 18 18 19 20 20
13 13 14 13 13 13 14 14 15 15 16 16 15 16 16 16 15 15 14 14 14 14 15 15 14 14 13 14 15 16 19 21 23 24 24 26 26 26 25 24 22 20 18 16 16 16 16 16 16 15 15 14 13 11 10 10 12 13 14 14 13 11 9 11 14 16 16 16 16 16 16 16 16 16 17 17 17 17 17 18 18 18 18 19 19 20
13 13 13 13 12 12 12 13 14 15 15 16 16 17 17 17 16 15 15 14 14 14 14 14 14 13 13 13 13 13 15 18 21 22 23 24 26 26 26 26 24 23 21 19 16 15 15 15 15 15 15 15 14 13 12 11 11 12 13 14 14 13 11 11 13 16 17 17 17 17 17 17 16 16 16 16 17 17 18 18 19 19 19 19 19 20
14 14 14 14 13 13 12 13 13 15 15 16 17 17 17 17 17 16 15 14 14 14 14 14 13 11 11 12 12 12 13 14 17 20 22 23 24 25 26 26 25 24 24 22 20 18 16 14 14 14 14 15 15 14 14 13 12 12 13 14 15 15 14 13 14 16 17 17 17 18 18 18 17 16 16 17 17 18 18 19 19 20 20 20 20 20
14 14 14 14 14 14 14 14 14 15 15 16 16 16 17 17 17 17 16 16 15 14 14 14 13 11 10 10 11 11 11 12 14 16 19 21 22 24 25 26 26 25 24 23 23 22 20 17 15 14 13 13 14 15 15 15 14 13 14 14 15 15 15 14 14 15 16 17 18 18 18 18 18 17 16 17 17 18 18 19 20 20 21 21 21 21
13 12 12 13 14 15 15 15 14 14 15 15 15 15 16 16 16 16 16 16 15 15 14 14 13 13 12 11 11 11 10 11 12 13 15 17 19 21 23 25 26 25 24 24 23 23 22 20 18 16 13 12 11 12 14 15 15 15 14 14 15 14 14 14 14 15 16 16 17 17 18 18 18 17 17 17 17 17 18 19 20 20 21 21 22 22
12 12 12 12 13 14 14 13 13 13 14 14 15 15 15 16 16 16 16 16 16 15 14 13 13 13 13 13 12 12 12 11 12 12 13 15 17 18 20 22 23 24 24 24 24 23 23 22 21 20 17 14 12 11 12 14 15 16 15 15 15 15 15 15 15 16 16 16 17 17 18 18 18 18 17 16 16 16 17 18 19 20 21 21 22 22
13 13 12 12 12 12 12 12 12 13 13 14 14 14 15 16 16 17 16 16 16 15 14 13 13 12 12 12 13 13 13 13 12 12 13 13 15 16 17 18 19 20 21 22 22 22 23 23 24 24 23 21 18 15 13 13 14 15 15 16 16 16 16 16 16 17 17 17 17 18 18 18 18 18 17 16 15 16 17 18 18 19 20 21 22 22
13 13 13 13 12 12 12 12 12 12 13 13 14 14 14 15 16 16 17 16 16 16 15 14 14 12 12 12 13 13 13 13 13 12 13 13 13 14 15 16 16 16 16 17 17 18 18 19 21 24 26 26 24 21 18 15 14 13 14 15 16 17 17 17 17 17 18 18 18 18 19 19 19 18 17 16 16 16 17 17 18 19 20 21 21 22
13 13 13 13 13 13 13 13 13 13 13 13 13 14 14 14 15 16 16 16 16 16 15 15 15 13 12 12 13 13 13 13 13 12 13 13 13 13 14 14 14 13 12 10 10 10 9 9 11 16 21 26 27 26 23 19 16 14 13 14 15 16 16 17 17 17 18 18 18 18 18 19 19 18 17 17 16 15 15 17 18 19 20 20 21 22
Wind_Direction
274 276 276 276 275 275 273 271 270 270 270 269 268 267 265 263 260 257 255 253 252 252 253 255 257 258 260 261 263 265 266 268 268 269 268 267 266 264 263 263 262 262 262 262 261 261 259 258 257 256 255 254 253 252 251 251 251 249 246 243 241 239 239 238 238 238 238 238 237 237 236 235 235 233 231 227 222 218 217 217 218 219 221 223 225 228
274 275 276 275 274 273 273 272 271 270 271 270 269 267 265 264 262 260 258 255 253 253 253 255 256 257 259 260 261 263 265 267 268 269 269 269 267 266 264 263 262 262 262 262 262 261 260 258 257 256 255 255 254 253 251 250 250 250 248 245 242 239 238 238 237 238 238 237 237 237 237 236 236 235 235 232 229 225 222 220 220 220 221 223 225 228
275 276 276 275 274 273 273 274 273 272 272 272 271 269 267 265 263 261 259 257 256 255 254 254 256 257 257 259 259 261 263 266 268 269 270 269 268 267 265 263 262 262 262 262 262 261 260 259 257 256 255 255 254 254 252 251 250 250 250 247 243 240 238 237 237 237 237 237 237 237 237 236 236 236 235 234 233 231 229 227 225 225 225 226 228 230
273 274 275 275 274 273 272 274 275 275 274 274 273 270 267 264 261 259 258 257 256 256 256 255 256 256 257 258 259 260 262 264 267 269 270 270 269 268 266 264 263 262 262 262 262 261 261 259 257 256 255 254 255 254 253 253 252 251 251 249 245 242 239 237 236 236 236 236 236 236 237 237 236 236 236 235 234 234 233 232 231 230 230 230 231 232
271 271 273 274 274 273 273 274 275 276 275 274 272 269 265 261 259 257 256 256 256 256 256 256 256 256 258 259 260 261 262 264 266 268 269 270 270 269 267 266 264 263 262 262 262 262 261 260 258 256 255 254 254 254 254 254 253 253 251 249 246 243 240 237 236 235 235 234 234 235 235 236 236 236 236 235 235 234 234 234 234 234 234 233 233 233
269 270 271 272 272 273 274 274 274 274 274 272 268 265 261 258 256 255 255 254 254 255 255 256 256 257 258 259 260 262 263 265 267 268 269 269 269 269 267 266 265 264 263 263 263 262 262 260 259 257 256 255 254 254 254 254 254 254 252 249 246 243 241 239 237 235 234 233 233 232 232 233 233 234 234 234 234 234 233 233 233 233 233 233 232 231
269 269 269 270 270 271 271 271 271 270 269 267 265 262 259 256 254 253 252 252 252 253 255 256 257 257 258 259 261 262 264 265 266 267 267 267 267 267 266 265 265 264 264 264 264 263 263 262 260 259 257 256 255 254 254 254 254 254 254 251 248 244 241 239 238 236 235 233 232 231 230 229 229 230 230 231 231 230 230 229 229 230 230 230 230 229
268 268 267 267 268 268 268 267 266 264 262 261 260 259 257 255 254 252 251 251 251 252 254 256 257 258 258 259 260 262 263 264 265 265 265 265 264 264 264 264 264 264 264 264 265 265 264 263 262 260 259 257 256 255 254 253 253 253 254 253 250 246 242 239 238 237 236 235 233 231 229 228 227 227 226 226 225 225 224 225 225 226 227 228 228 227
263 265 265 264 265 266 267 266 263 260 258 256 254 254 254 254 254 254 254 252 251 250 251 253 255 257 258 258 258 259 260 261 261 262 262 262 262 262 262 262 262 263 263 264 265 265 265 265 265 263 261 259 257 256 255 253 253 253 253 253 252 248 244 240 238 237 236 235 234 232 231 229 228 227 225 223 222 221 221 221 222 224 225 226 226 226
259 261 264 264 263 263 264 264 262 260 256 253 251 250 250 250 253 256 256 255 252 250 249 249 251 254 256 256 256 256 257 257 258 258 259 259 260 260 261 262 262 263 263 264 264 265 265 266 266 265 263 261 259 257 255 254 252 251 251 252 252 250 245 241 237 236 235 235 234 233 232 230 229 228 227 225 223 221 220 220 221 222 224 225 225 225
259 260 262 263 263 261 259 259 260 258 255 252 249 247 246 246 249 253 255 255 255 253 250 248 248 249 252 254 254 253 253 254 256 256 257 258 259 260 261 262 262 263 264 264 265 265 265 266 266 266 265 263 261 258 256 254 252 250 250 250 250 250 247 243 238 235 234 234 233 233 232 230 229 228 228 227 225 223 221 221 221 222 223 224 225 226
259 260 261 261 261 260 258 257 257 255 251 246 245 245 245 244 245 246 249 252 254 254 253 251 250 248 248 249 250 250 250 250 252 254 256 256 257 259 260 261 262 263 264 265 265 266 266 266 265 265 265 264 262 260 257 254 251 249 248 248 248 249 248 245 240 236 233 232 231 231 231 229 228 228 227 227 226 224 222 222 222 223 224 225 225 226
256 258 259 258 257 255 254 253 252 249 244 239 239 242 245 245 244 243 244 247 250 252 252 253 253 251 249 247 246 247 247 247 249 251 253 254 255 256 258 260 261 262 263 264 265 265 265 265 265 265 264 263 262 260 258 255 252 249 247 246 246 247 248 247 243 237 232 230 228 228 228 227 227 226 226 226 225 224 223 222 222 223 224 225 226 227
254 254 254 253 252 252 249 247 246 244 241 238 239 242 244 245 244 242 243 245 247 249 250 251 252 252 251 247 244 242 242 244 247 250 251 253 254 254 255 257 258 260 261 262 263 264 264 264 265 264 263 262 261 260 258 256 253 250 247 246 245 246 248 248 246 240 234 229 227 225 225 225 225 225 225 225 224 223 222 222 222 222 223 224 225 226
250 250 250 250 250 249 247 245 244 243 243 242 241 242 243 243 241 239 240 242 245 247 248 249 250 251 250 247 243 240 239 241 244 248 250 252 253 253 253 254 256 258 258 259 260 262 262 263 263 263 263 262 260 259 258 257 255 252 249 247 246 246 247 248 248 244 238 231 227 224 223 223 223 223 223 223 223 222 221 220 220 221 222 223 225 226
249 248 248 248 248 247 246 246 245 244 244 244 243 241 240 239 239 237 237 240 243 244 244 246 248 250 250 247 242 238 236 238 241 245 249 253 254 252 250 251 253 255 255 255 257 258 260 260 261 261 261 261 261 260 259 258 257 254 252 250 248 247 247 248 249 248 243 236 230 226 223 222 222 222 222 222 221 220 219 218 218 219 220 222 224 226
250 248 247 247 248 248 248 248 247 246 246 246 244 241 238 237 236 236 236 238 241 241 240 240 239 245 249 248 243 235 231 233 238 242 246 250 252 251 247 246 249 252 253 253 254 255 257 257 258 258 258 259 260 260 260 259 258 256 255 253 252 250 249 249 251 251 248 242 235 229 225 223 222 221 221 221 219 218 217 216 216 217 218 221 223 226
250 248 247 247 248 249 250 250 249 249 248 246 245 243 240 237 235 235 235 236 236 237 237 237 236 236 240 249 245 236 226 226 232 237 242 246 249 248 245 243 245 248 251 252 252 253 253 254 254 255 255 257 258 259 260 260 259 257 256 255 254 253 251 251 252 253 253 248 240 233 227 224 222 221 220 219 218 217 215 214 214 215 217 220 223 225
249 248 247 247 249 251 252 252 251 250 248 246 244 243 241 239 236 234 233 233 232 233 235 237 239 240 242 245 247 241 228 223 225 232 237 243 246 246 243 241 243 246 248 250 251 251 251 251 252 253 254 255 257 258 259 259 259 258 256 255 254 253 252 252 252 253 254 252 246 238 231 225 222 220 219 217 216 215 214 213 213 214 216 219 222 225
250 248 246 246 249 251 253 252 252 251 249 247 244 241 239 238 235 233 232 232 232 233 234 236 240 242 244 246 247 244 234 224 222 227 235 240 244 245 242 239 240 243 246 248 248 248 248 249 250 252 253 254 256 256 257 257 258 257 256 256 254 253 251 251 251 252 253 254 251 243 235 228 223 220 217 215 214 213 212 212 212 214 216 219 222 224
265 258 249 246 246 248 251 252 251 251 251 249 246 241 238 236 234 233 232 231 232 233 234 237 240 242 244 245 246 244 236 225 220 223 233 239 243 243 240 237 238 241 245 247 247 246 245 247 249 250 251 253 255 256 256 256 257 257 257 256 255 253 252 250 249 249 251 253 253 250 241 232 225 220 217 214 213 212 211 211 212 214 216 219 222 224
275 273 268 259 250 246 249 251 252 252 251 248 244 239 236 234 233 233 232 231 231 232 235 237 240 242 244 244 244 243 238 228 222 224 234 240 244 243 239 235 236 240 243 246 246 245 244 246 247 249 251 253 255 256 256 256 256 257 256 256 255 254 252 250 248 247 246 248 251 252 248 237 229 222 218 215 212 211 211 211 212 214 216 219 222 224
268 269 270 267 260 255 254 256 255 252 249 245 242 240 238 235 234 234 234 233 233 235 237 240 243 244 244 244 244 243 238 230 225 226 233 238 246 245 241 235 234 237 242 244 245 245 245 245 247 250 252 254 255 255 256 256 256 256 256 256 255 254 253 251 248 245 244 244 246 248 248 241 231 223 217 214 212 212 212 212 213 215 217 220 223 225
260 261 261 261 260 258 257 256 254 251 248 244 242 240 239 238 236 236 236 235 235 236 239 242 243 244 242 242 242 240 236 229 225 224 230 238 247 248 245 239 235 238 242 244 245 245 245 246 248 250 251 252 253 254 255 255 255 256 257 256 255 254 253 251 248 246 243 242 242 244 245 242 234 224 218 215 213 212 212 213 214 216 217 220 223 225
257 256 256 257 257 256 255 254 253 250 248 245 243 241 240 239 238 238 237 236 235 235 236 237 239 240 239 239 238 237 234 228 222 221 226 238 247 250 249 244 240 241 245 247 247 245 244 246 248 249 250 251 252 253 254 255 255 257 258 257 255 253 252 251 249 246 243 241 240 240 241 240 236 228 221 217 214 213 213 213 215 216 218 220 223 225
260 259 258 258 257 256 255 254 253 252 249 246 243 240 239 237 237 236 235 233 231 229 228 230 233 236 238 237 236 235 233 227 222 220 223 234 245 250 250 246 243 243 248 250 248 244 243 245 247 249 250 252 253 254 254 255 256 258 260 258 255 253 251 250 248 246 243 240 238 237 238 237 235 231 226 221 218 215 214 215 216 217 219 221 223 225
266 265 264 262 261 260 259 258 257 255 252 248 244 240 236 234 232 232 232 231 227 224 223 225 230 235 237 237 236 235 233 227 221 219 221 228 239 249 249 247 244 244 249 252 251 246 244 245 247 249 250 251 253 255 255 255 256 257 259 258 256 253 251 248 247 245 243 240 238 237 237 236 234 232 229 225 222 219 218 217 218 218 220 222 224 226
268 267 265 264 264 263 263 262 261 258 255 252 247 242 235 230 227 227 230 230 226 223 223 224 228 232 234 235 237 236 233 228 221 217 217 221 231 244 246 246 244 244 248 253 255 252 248 247 248 249 249 251 254 255 256 257 256 256 257 258 256 254 251 248 246 244 242 241 239 237 236 235 234 232 230 228 225 223 222 221 221 221 222 224 226 227
266 264 261 260 260 261 262 263 264 263 261 258 254 248 240 231 226 225 230 229 226 224 226 228 231 233 236 240 240 239 235 230 223 216 211 214 226 239 243 243 241 241 245 253 258 257 251 248 246 246 247 251 252 254 255 256 256 256 256 256 256 254 251 248 245 242 240 239 238 237 236 235 234 233 231 229 227 226 225 224 223 224 224 225 226 227
261 257 255 254 254 255 257 258 260 261 262 262 261 257 250 240 232 228 229 227 224 224 228 231 233 235 238 242 243 241 236 231 223 213 206 206 221 235 237 236 236 236 237 246 256 260 254 250 246 244 245 247 248 250 251 252 252 253 253 254 255 254 252 248 244 241 239 237 236 235 234 233 232 232 231 230 228 227 226 225 224 224 224 224 225 225
257 252 249 249 249 250 251 253 255 257 258 259 260 260 257 250 242 234 229 225 222 223 227 231 234 235 235 233 234 236 233 230 221 210 204 204 217 229 229 229 230 231 230 230 235 288 263 256 249 244 241 241 242 244 246 246 246 247 248 250 252 252 251 247 244 240 238 235 234 233 232 231 231 230 229 229 227 226 225 223 222 222 222 222 221 220
256 250 246 246 246 247 247 249 251 252 253 254 254 254 253 251 247 242 235 229 224 222 225 231 235 237 235 234 234 239 241 233 219 207 202 204 215 224 223 222 225 227 226 226 229 242 263 277 266 255 242 237 237 238 240 240 239 240 241 244 247 248 248 246 242 239 236 234 232 231 230 229 228 227 226 225 224 222 221 220 219 218 218 217 216 216
253 247 245 243 243 243 243 244 245 246 247 248 248 248 247 246 245 243 241 237 231 226 224 228 234 237 238 238 239 242 244 238 222 207 201 202 210 219 219 218 219 223 224 225 228 235 244 254 269 272 262 248 239 236 235 233 232 232 233 236 239 242 244 241 238 235 233 231 230 228 228 227 226 225 223 222 220 219 217 216 215 215 214 213 212 212
250 244 240 238 237 237 238 239 239 240 241 242 242 243 242 242 241 241 241 240 237 232 227 226 229 233 235 238 240 242 242 237 225 211 203 201 206 215 215 213 214 217 219 222 225 231 239 245 253 262 266 261 251 240 233 229 227 227 228 229 231 234 235 233 231 229 228 227 225 224 224 223 223 222 221 220 218 216 215 214 213 213 213 212 211 210
249 241 236 232 230 230 231 232 233 234 235 236 237 237 238 238 238 238 238 238 237 235 233 230 229 230 233 236 239 241 240 235 226 215 206 202 206 213 214 214 213 213 214 217 221 225 234 239 241 245 253 259 256 246 236 229 224 223 224 225 226 227 226 223 222 222 222 222 221 220 218 218 218 218 218 217 216 215 214 214 214 214 215 215 214 213
254 244 237 231 228 227 227 227 228 229 231 232 233 233 234 235 236 236 236 236 235 236 235 234 233 232 233 235 238 240 240 236 227 217 210 206 207 211 216 218 215 212 212 215 219 222 227 233 236 237 241 248 254 250 240 229 222 219 219 220 222 222 222 218 214 213 214 215 216 215 214 212 212 212 213 214 214 214 214 214 215 216 217 218 219 218
259 249 241 233 228 227 227 229 228 228 229 230 230 230 231 232 233 233 233 233 233 234 235 236 236 235 235 236 237 239 240 239 233 223 215 211 210 212 217 221 219 215 213 215 218 221 223 228 233 234 235 238 242 244 238 225 216 214 216 216 217 218 218 215 211 208 207 208 210 210 210 208 207 208 209 210 211 213 214 215 216 218 219 221 222 223
258 250 243 236 231 230 230 231 231 230 229 230 230 230 230 230 231 231 231 231 231 232 232 234 235 236 236 237 237 237 238 238 235 229 222 216 212 213 217 222 223 220 217 217 218 220 221 223 226 228 229 234 237 239 236 224 214 211 213 213 213 214 214 212 208 205 204 204 205 205 205 205 205 204 205 207 209 211 213 215 217 219 221 223 225 226
259 253 246 240 236 234 233 233 232 230 229 229 230 230 230 230 230 231 231 231 231 231 231 232 233 235 236 236 237 236 236 235 235 232 227 220 215 214 216 220 223 223 222 221 221 220 221 223 224 222 222 232 236 236 234 227 218 211 209 210 211 212 211 209 206 204 203 202 201 201 201 201 201 201 202 204 205 208 211 214 217 219 221 225 228 230
264 259 253 246 241 238 235 234 232 230 228 230 230 230 229 227 228 229 230 230 231 231 231 232 233 234 235 235 235 235 234 233 233 232 230 225 220 217 216 218 221 222 223 222 222 222 223 225 228 230 230 231 232 231 230 226 220 213 206 205 207 209 208 207 205 203 202 200 199 198 198 197 198 199 200 201 203 206 209 211 215 218 220 223 227 230
268 265 260 254 247 242 238 235 232 229 227 225 224 223 223 222 222 224 226 227 227 228 229 229 230 232 234 234 233 232 232 232 231 231 231 229 225 222 219 219 220 221 222 222 223 223 224 226 229 231 232 232 232 231 228 225 221 216 210 207 207 208 207 206 204 203 202 201 200 199 197 196 197 199 200 202 204 206 208 210 213 216 219 221 223 225
269 268 266 260 253 246 241 237 233 229 226 222 220 219 218 217 217 218 219 221 223 224 225 225 226 228 230 231 231 230 229 229 229 230 230 230 229 226 223 222 221 222 222 223 225 226 226 226 228 229 230 230 231 232 230 227 222 218 214 211 209 208 207 206 204 202 201 201 202 201 199 199 199 200 202 204 206 208 210 212 214 216 218 220 221 222
268 268 268 265 259 251 243 236 230 226 223 222 221 221 220 219 217 217 218 219 221 222 222 222 223 225 228 229 229 228 227 228 228 228 229 229 229 228 226 225 224 223 222 224 227 228 228 227 228 229 229 229 230 231 232 228 224 220 217 213 208 205 204 203 202 201 201 201 201 202 202 202 202 203 204 206 208 210 212 214 216 218 219 220 220 221
269 269 268 267 263 255 244 234 227 223 220 220 222 223 223 221 220 219 219 221 223 223 222 221 221 223 227 230 229 228 225 225 226 226 227 228 228 228 227 227 226 225 224 225 227 230 230 230 229 229 229 229 230 232 232 229 225 221 218 214 210 208 207 202 198 197 198 201 202 203 203 204 204 205 207 209 211 213 215 216 218 220 220 221 221 222
268 266 264 263 260 254 244 235 228 224 222 222 223 224 224 222 221 220 220 221 223 223 221 218 218 220 226 229 229 228 226 222 221 222 224 225 227 227 227 227 226 226 226 226 228 230 232 233 232 230 229 229 230 231 231 230 227 224 221 218 216 214 213 208 200 197 197 200 203 204 204 204 204 206 208 211 213 215 216 218 219 220 221 222 223 223
263 261 258 256 255 252 246 240 233 227 224 224 224 224 223 220 219 218 220 221 222 223 221 217 215 217 223 226 226 226 225 222 219 217 218 220 223 225 226 227 226 226 226 228 230 232 233 235 235 233 231 231 231 230 229 227 226 226 225 223 220 219 219 216 209 203 201 202 203 205 205 204 205 207 210 213 216 217 219 220 220 221 222 223 224 225
268 264 260 256 254 253 250 245 237 231 227 226 225 223 220 218 216 216 218 219 220 221 221 218 217 218 223 225 223 222 222 222 220 217 214 214 217 220 223 225 226 227 227 229 231 233 234 235 236 235 233 233 232 230 227 225 223 224 224 224 223 222 222 221 217 212 208 206 206 206 205 205 206 209 213 215 218 219 221 222 222 222 223 223 224 225
277 274 271 268 264 261 257 250 242 234 230 229 227 223 220 215 213 213 216 218 218 218 219 218 219 220 224 225 223 222 221 222 222 219 214 212 212 214 217 221 224 226 227 229 231 233 235 236 236 235 234 235 236 236 231 225 222 221 222 223 223 224 224 224 222 219 216 214 212 210 207 206 208 211 214 216 219 222 223 224 224 224 224 224 225 226
280 280 279 278 274 270 265 258 249 241 236 232 229 225 221 216 215 216 216 216 215 216 217 217 219 221 224 225 224 223 222 223 223 221 217 213 211 211 212 215 217 221 224 227 230 232 235 236 237 236 235 235 238 241 241 234 227 223 221 221 223 224 225 225 224 222 220 219 218 216 213 212 213 214 215 218 221 224 226 226 227 226 226 226 226 228
280 281 281 281 278 275 271 266 259 251 244 238 233 228 223 220 217 216 216 215 215 215 216 218 220 222 224 225 224 223 222 221 221 220 218 214 210 208 207 208 209 212 217 221 224 227 230 234 236 236 235 235 235 237 241 241 236 230 224 222 222 223 224 224 224 223 222 221 221 220 218 218 218 218 219 221 224 228 229 230 230 230 229 228 229 230
284 283 282 280 278 276 273 270 266 262 255 247 239 232 226 221 218 217 216 215 215 216 218 219 221 223 225 226 226 223 221 219 218 218 216 214 210 207 205 204 204 205 209 214 218 219 221 226 231 234 234 233 232 231 233 235 237 235 231 228 224 223 222 223 223 223 222 222 222 221 220 220 220 220 220 223 226 230 233 234 234 233 232 231 231 232
Height
721 720 721 721 721 720 719 720 720 719 718 718 718 718 717 717 716 716 716 716 716 715 715 715 715 714 714 713 713 712 712 711 711 710 710 710 710 709 709 709 709 709 709 708 708 708 707 707 707 707 707 707 707 708 708 708 709 709 710 711 711 712 714 715 716 717 718 719 720 721 722 724 725 726 727 728 728 729 731 732 734 735 737 739 741 743
720 719 719 720 720 719 717 717 718 718 716 716 716 716 715 715 715 714 714 714 714 714 713 713 712 712 711 710 710 710 710 709 709 708 708 707 707 707 707 706 706 706 706 706 705 705 705 705 705 705 705 705 705 705 706 706 706 707 707 708 709 710 711 712 713 714 715 716 717 719 720 721 723 724 725 726 726 727 729 730 731 733 735 737 739 741
718 718 717 717 718 717 715 715 715 715 715 714 714 714 714 713 713 712 712 712 712 711 711 711 710 709 709 708 708 707 707 706 706 706 705 705 705 705 705 704 704 704 704 704 703 703 703 703 703 703 703 703 703 703 703 704 704 705 705 705 706 707 708 709 710 712 713 714 715 716 717 719 720 721 723 724 725 725 727 728 729 731 733 735 737 739
717 716 715 716 716 715 714 714 713 713 713 712 712 711 711 711 710 710 710 710 710 709 709 709 708 707 706 705 705 705 705 704 704 704 703 703 703 703 702 702 702 702 702 701 701 701 700 700 700 700 700 700 700 700 701 701 701 702 702 703 704 704 705 706 708 709 710 711 713 714 715 716 717 719 720 721 722 723 725 725 727 729 730 733 735 736
715 715 714 714 714 713 712 712 712 711 711 710 710 710 709 709 708 708 708 708 708 707 707 706 706 705 704 703 703 702 702 702 702 701 701 701 701 700 700 700 700 700 699 699 699 699 698 698 698 698 698 698 698 698 698 699 699 700 700 700 701 702 703 704 705 706 708 709 710 711 712 714 715 716 717 718 719 720 722 723 725 727 729 731 733 734
713 714 713 713 712 710 710 710 710 710 709 709 708 707 707 707 706 706 706 705 705 705 704 704 703 703 702 701 701 700 700 700 700 699 699 699 699 698 698 698 698 698 697 697 697 696 696 696 696 695 695 695 695 696 696 696 697 697 697 698 699 699 700 701 702 703 705 706 707 709 710 711 712 714 715 716 717 719 720 721 723 725 727 729 731 732
711 711 712 711 710 709 708 708 708 708 708 707 706 705 705 705 705 704 704 703 703 702 702 701 701 700 700 699 699 698 698 697 697 697 697 696 696 696 696 696 696 695 695 695 695 694 694 694 693 693 693 693 693 693 694 694 694 695 695 695 696 696 697 698 700 701 702 703 704 705 707 708 710 711 712 714 715 717 718 720 722 724 726 727 729 730
709 708 709 709 708 706 706 705 705 705 705 705 704 703 703 703 702 702 701 701 700 700 700 699 698 698 697 697 696 696 696 695 695 695 694 694 694 694 694 694 693 693 693 693 692 692 692 691 691 691 691 691 691 691 691 691 692 692 692 693 693 694 695 696 697 698 699 700 701 703 704 705 707 708 710 711 713 715 716 718 720 722 724 725 726 727
707 706 705 705 705 705 703 702 702 703 704 703 702 702 701 700 700 700 699 699 698 698 697 697 696 695 694 694 694 694 694 693 693 692 692 692 691 691 691 691 691 691 691 690 690 690 690 689 689 689 689 688 688 689 689 689 690 690 690 690 691 691 692 693 694 695 696 698 699 700 701 703 704 705 707 708 710 712 714 715 717 719 721 722 724 725
705 704 703 703 703 703 702 700 700 700 701 701 700 700 699 699 698 697 697 696 695 695 695 694 693 692 691 691 691 691 691 691 690 690 690 690 690 690 689 689 689 689 688 688 688 688 688 687 687 687 686 686 686 686 686 686 687 687 688 688 688 689 689 690 691 693 694 695 696 698 699 700 702 703 705 706 708 709 711 713 715 716 718 720 721 723
702 702 701 701 700 700 700 699 698 698 699 699 698 697 696 696 696 695 694 693 692 692 692 691 690 690 689 689 689 689 689 688 688 688 688 688 688 688 687 687 687 686 686 686 686 686 685 685 685 685 684 684 684 683 684 684 684 685 685 685 685 686 687 687 688 690 691 693 694 695 697 698 700 701 703 704 705 707 709 710 712 714 716 717 719 721
700 700 699 699 698 697 696 696 695 696 696 696 695 694 693 692 693 693 692 690 689 689 689 688 687 687 687 686 686 686 686 686 686 685 685 685 685 685 685 685 685 685 684 684 684 683 683 683 683 682 682 681 681 681 681 681 681 682 682 683 683 683 684 685 685 687 688 690 691 693 694 696 697 699 700 702 704 705 707 708 710 712 714 715 717 719
697 697 696 695 695 694 694 693 693 693 693 692 691 690 689 688 689 690 689 687 686 686 686 686 685 684 684 684 684 684 684 684 684 684 684 684 684 684 683 683 683 682 682 682 681 681 681 680 680 680 680 679 679 678 678 678 678 679 679 680 680 681 681 682 683 684 685 686 688 690 691 693 695 696 698 700 701 703 705 706 708 710 711 713 715 717
694 694 693 692 691 690 690 690 690 689 688 687 687 685 685 685 686 686 686 685 684 684 684 684 683 682 682 682 682 682 682 682 682 682 682 682 682 682 682 681 681 680 680 680 679 679 679 679 678 677 677 677 676 676 676 676 676 676 676 677 678 678 679 680 680 681 682 683 684 686 688 690 692 694 695 697 699 701 702 704 706 708 710 711 713 715
691 690 689 688 686 686 686 686 685 685 683 683 683 682 682 683 683 683 683 682 681 681 682 681 680 680 679 680 680 680 680 680 680 680 680 680 680 680 680 680 679 678 678 678 677 676 676 677 676 675 675 675 674 674 674 674 673 674 674 675 675 676 676 677 678 678 679 680 681 683 685 686 688 690 693 695 696 698 700 701 703 705 707 709 711 713
687 686 685 683 682 682 682 682 682 681 680 680 680 680 680 680 680 680 680 679 679 679 680 680 679 678 677 677 678 678 679 679 678 678 678 677 677 678 678 678 677 676 676 675 675 674 674 674 674 674 673 673 672 672 672 672 672 671 671 672 673 673 674 675 675 676 677 678 679 680 681 683 685 687 690 691 693 695 697 699 700 702 705 706 709 710
683 682 681 680 679 678 678 679 679 678 677 677 677 677 677 677 677 677 677 677 677 677 677 677 677 676 675 675 675 675 676 676 676 676 676 675 675 675 676 675 675 674 673 673 673 672 672 672 672 672 671 671 671 671 670 670 670 670 670 670 670 671 671 672 673 674 674 675 676 677 679 680 682 685 686 688 690 692 694 695 697 700 702 704 706 708
680 679 678 677 676 675 676 676 675 675 675 675 675 675 675 674 674 675 675 675 675 675 675 674 674 673 672 672 672 673 674 674 674 674 674 673 672 672 673 673 673 672 671 671 670 670 670 670 670 670 670 670 669 669 669 669 668 668 668 668 668 669 669 670 670 671 672 673 674 675 676 678 680 681 684 685 687 689 691 693 695 697 699 701 703 705
677 676 676 675 674 673 673 673 673 673 673 672 672 672 672 672 672 672 672 672 672 672 672 672 671 670 670 670 670 670 671 672 672 672 671 671 670 670 671 671 671 670 669 669 668 669 669 669 668 668 668 668 668 668 667 667 667 667 667 667 667 667 667 668 669 670 670 671 672 673 674 675 677 679 680 683 685 686 688 690 692 694 696 699 701 703
674 673 673 673 672 672 671 671 670 670 670 670 670 670 670 670 670 670 670 670 670 670 670 669 668 668 668 668 668 669 670 670 670 670 670 669 668 669 669 670 669 668 667 666 666 667 667 667 667 666 666 666 666 666 666 666 665 665 665 665 665 665 666 666 667 668 669 669 670 670 672 673 675 676 678 680 681 683 685 687 689 691 694 696 699 700
671 670 670 671 671 670 669 668 668 669 669 669 669 668 668 668 668 668 668 668 668 668 667 667 666 665 665 666 666 667 668 668 668 668 668 667 667 666 667 667 667 666 665 665 665 665 665 665 665 665 664 664 664 664 664 664 664 664 664 664 664 664 664 665 665 666 667 667 668 669 670 671 672 674 675 677 679 680 683 685 687 689 691 694 696 698
669 668 668 669 668 668 667 666 666 667 667 667 666 666 665 665 665 665 665 665 665 665 665 664 663 663 664 664 664 665 666 666 666 666 666 665 665 664 665 665 665 665 663 663 663 663 663 663 663 663 662 662 663 663 663 663 662 662 662 662 662 662 662 663 663 664 665 665 666 667 668 669 670 671 673 675 676 678 680 682 685 687 689 691 694 696
667 666 666 666 666 665 664 664 664 664 664 664 664 663 663 663 663 663 663 663 663 662 662 662 662 662 662 663 663 663 664 664 664 664 665 664 662 662 663 664 664 663 661 661 661 662 662 661 661 661 660 661 661 661 661 661 660 660 660 660 660 660 660 660 661 662 663 664 665 665 666 667 668 670 671 673 674 676 678 680 682 685 687 689 691 693
664 663 662 662 662 662 661 661 661 661 661 661 661 660 660 660 660 660 660 660 660 660 660 661 661 661 660 661 661 661 661 662 662 663 663 662 661 660 661 662 662 661 660 660 660 660 660 660 659 659 659 659 659 659 659 659 659 659 658 658 658 658 658 659 659 660 660 661 663 664 665 666 667 668 670 671 673 674 676 679 680 683 685 687 689 691
660 659 659 658 659 659 658 658 658 658 658 658 658 658 658 658 659 659 659 659 659 659 660 660 659 659 659 659 659 659 659 660 660 661 661 660 660 659 660 660 660 660 659 659 659 659 659 658 658 658 657 657 657 657 657 657 657 656 656 656 656 656 656 656 657 657 658 659 660 662 664 665 666 667 668 670 671 673 675 677 679 681 683 685 687 689
657 656 655 655 655 655 656 655 655 655 655 655 655 655 656 656 657 657 657 657 657 657 658 658 657 656 656 657 657 657 657 658 658 659 659 659 658 658 658 659 659 658 658 657 658 658 657 657 656 656 655 655 655 655 655 655 655 655 654 654 654 654 654 654 655 655 656 657 659 660 661 663 664 665 666 668 669 671 673 675 677 679 680 683 685 686
655 654 654 653 653 653 653 653 653 653 653 653 653 653 653 654 654 654 654 654 655 655 655 655 654 654 654 655 654 654 655 655 656 656 657 658 657 657 656 657 657 657 657 656 656 656 656 655 655 654 654 653 653 653 653 653 653 653 652 652 652 652 652 652 653 653 654 655 656 658 660 661 662 664 665 666 668 669 671 673 675 677 679 681 683 684
652 651 651 651 651 651 651 651 650 650 650 650 650 650 651 651 651 651 650 651 652 653 653 652 652 652 652 652 651 652 652 653 653 654 655 656 656 655 655 655 656 656 656 655 655 655 655 654 653 653 652 652 651 651 650 651 651 650 650 650 650 650 650 650 651 651 652 653 655 656 657 659 660 662 663 665 666 668 669 671 673 675 677 679 681 682
648 648 648 648 648 648 648 648 648 648 648 648 648 648 649 648 648 647 647 649 650 650 650 650 650 650 650 650 650 650 650 650 651 652 653 654 654 653 653 654 655 655 655 654 654 653 653 652 651 651 650 650 650 649 649 649 649 649 648 648 648 648 648 648 649 650 651 652 653 654 655 657 658 660 661 663 664 666 668 670 672 674 676 677 679 679
645 645 645 645 645 645 645 645 645 645 646 646 646 646 646 646 645 645 646 647 648 648 648 648 648 649 649 649 649 649 648 648 648 650 651 652 651 651 652 653 653 653 654 654 653 652 650 650 650 649 649 649 648 648 647 647 647 647 647 647 647 646 646 647 647 648 649 650 651 653 654 655 656 658 660 661 663 664 666 668 670 673 674 675 676 677
643 642 642 642 642 642 643 643 643 643 643 644 644 644 645 644 644 644 644 645 646 646 646 647 647 647 648 648 648 646 645 645 646 647 648 649 649 649 650 650 651 651 652 652 652 650 649 648 648 647 647 647 647 646 646 646 646 646 645 645 645 645 645 645 646 646 647 648 650 651 652 653 655 656 658 659 661 663 665 667 669 670 672 673 673 674
640 640 640 639 640 640 640 640 640 641 641 641 642 642 642 642 642 642 642 643 643 644 645 645 645 646 646 646 645 644 643 643 644 645 645 646 646 647 648 648 649 649 650 650 650 650 649 647 646 646 646 646 646 645 645 645 645 645 645 645 645 644 644 644 645 645 646 647 648 649 650 652 653 655 656 657 659 661 662 664 666 668 669 670 670 671
637 637 637 637 637 637 637 638 638 638 639 639 639 640 640 640 640 641 641 641 641 641 642 643 644 644 644 644 643 642 642 642 642 643 643 644 645 645 645 646 647 647 648 648 649 648 648 647 646 646 645 645 645 645 644 644 644 644 644 644 644 643 643 644 644 644 645 646 647 648 649 650 651 653 654 655 657 658 660 662 663 665 666 667 668 669
635 635 635 635 635 635 635 635 636 636 636 637 637 637 638 638 638 639 639 639 639 639 640 640 641 642 642 642 641 641 641 641 641 641 642 642 643 643 644 644 645 645 646 646 647 647 646 646 645 645 645 644 644 644 643 643 643 643 643 643 643 643 643 643 643 643 644 645 645 646 648 649 650 651 652 654 655 656 658 659 661 662 664 665 666 668
632 632 632 633 633 633 633 633 634 634 634 634 635 635 635 635 636 636 636 636 637 637 637 638 638 639 640 640 640 639 639 640 640 640 640 640 641 641 642 642 643 643 644 644 645 645 645 645 644 644 644 643 643 642 642 642 642 642 642 642 642 642 642 642 643 643 643 644 645 645 646 647 648 650 651 652 653 655 656 658 659 661 662 663 665 667
631 631 630 631 631 631 631 631 632 632 632 632 632 633 633 633 634 634 634 634 634 635 635 635 635 636 637 637 638 637 637 638 638 639 639 639 639 640 640 640 640 641 642 642 643 643 643 643 643 643 643 642 642 641 641 641 641 641 641 641 641 642 642 642 642 642 643 643 644 645 645 646 647 648 650 651 652 654 655 657 658 660 661 663 664 665
630 630 629 629 629 629 630 630 630 630 630 630 630 630 631 631 631 631 632 632 632 632 633 633 633 634 634 635 635 635 636 637 637 637 637 637 637 638 638 638 639 639 640 640 640 641 641 641 641 641 641 640 640 640 640 640 640 640 640 640 641 641 641 641 642 642 642 643 643 644 645 645 646 647 649 650 651 653 654 656 657 659 660 662 663 664
629 628 628 628 628 628 628 628 628 628 628 628 628 628 629 629 629 630 630 630 630 630 630 631 631 631 632 632 633 634 634 635 635 635 636 636 636 636 636 637 637 638 638 638 639 639 639 639 639 639 639 639 639 638 639 639 639 639 639 640 640 640 641 641 641 641 642 642 643 644 644 645 646 647 648 649 650 652 653 655 656 657 659 660 662 663
627 626 626 625 625 625 625 625 625 625 626 626 626 627 627 627 628 628 628 628 629 629 629 629 629 629 630 630 631 632 632 633 634 634 634 634 634 635 635 635 635 636 636 637 637 637 638 637 637 637 637 637 637 637 637 637 638 638 638 639 639 640 640 640 640 641 641 642 642 643 644 645 645 646 647 648 650 651 652 653 655 656 657 659 660 661
625 625 624 624 624 624 623 623 623 624 624 625 625 625 626 626 626 626 627 627 627 627 627 627 628 628 628 628 629 630 630 631 631 632 632 633 633 633 633 634 634 634 635 635 635 636 636 636 635 635 635 636 636 636 636 636 636 637 637 638 638 639 639 639 640 640 641 641 642 642 643 644 645 646 647 648 649 650 651 652 653 655 656 657 658 659
623 623 622 622 622 622 622 622 622 622 623 623 624 624 624 625 625 625 625 626 626 626 626 626 626 626 626 627 627 627 628 629 629 630 630 631 631 631 632 632 632 633 634 634 634 634 634 634 634 634 635 635 635 635 635 635 635 635 636 636 637 637 638 638 639 640 640 640 641 642 642 643 644 645 646 647 648 649 650 651 652 653 655 655 656 657
622 621 621 620 620 620 620 620 620 621 621 621 622 622 622 623 623 624 624 624 625 625 625 625 625 625 625 625 625 625 626 626 627 627 628 629 629 630 630 631 631 632 632 632 632 632 633 633 633 633 633 633 634 634 634 634 634 634 635 635 635 636 637 637 638 639 639 640 640 641 642 642 643 644 645 646 647 648 649 650 651 652 653 654 655 655
620 620 620 619 619 619 619 619 619 619 620 620 620 620 620 621 621 622 622 623 623 623 623 624 624 624 624 624 624 624 624 624 625 625 626 626 627 628 629 629 630 630 630 631 631 631 631 631 631 631 632 632 633 633 633 633 633 633 633 634 635 635 636 636 636 637 638 639 639 640 641 641 642 643 644 645 645 646 648 649 650 650 651 652 653 654
619 619 619 618 618 618 618 618 617 618 618 618 618 618 619 619 620 620 620 621 621 621 622 622 622 623 623 622 622 622 623 623 623 624 624 625 625 626 626 627 628 628 629 629 629 629 630 630 630 630 630 631 631 631 631 631 632 632 632 633 633 633 633 634 635 636 636 637 638 639 639 640 641 642 643 644 645 645 646 647 648 649 650 650 651 652
618 618 617 617 617 616 616 616 615 615 616 616 616 616 617 617 618 618 619 619 619 620 620 620 621 621 621 621 621 621 621 621 621 622 622 623 623 624 625 625 626 626 627 627 627 628 628 628 628 628 629 630 630 630 630 630 630 631 631 631 632 632 632 632 633 634 635 635 636 637 638 639 640 640 641 642 643 644 644 645 646 647 648 649 649 650
617 616 615 615 615 615 614 614 614 614 614 614 614 614 615 615 616 616 617 617 618 618 618 619 619 619 619 619 619 620 620 620 620 620 620 621 621 622 622 623 624 624 625 625 625 626 626 626 627 627 628 628 628 628 628 628 629 629 630 630 630 631 631 632 632 632 633 634 635 635 636 637 638 639 640 640 641 642 642 643 644 645 645 646 647 648
615 615 614 614 613 613 612 612 612 612 612 612 612 612 613 614 614 615 615 615 616 616 616 617 617 617 617 617 617 618 618 618 618 618 619 619 620 620 621 621 622 622 623 623 624 624 625 625 625 626 626 626 626 626 626 626 627 627 628 629 629 630 630 630 630 631 632 632 633 634 635 636 637 637 638 639 639 640 640 641 642 643 644 644 645 646
615 614 613 613 612 611 611 611 610 610 610 610 610 610 611 611 612 612 613 613 614 614 615 615 615 615 615 615 615 616 616 616 616 617 617 617 618 618 619 620 620 620 621 622 622 623 623 624 624 625 625 625 625 624 624 625 625 626 626 627 628 628 628 629 629 630 630 631 631 632 633 634 635 635 636 637 637 638 639 639 640 640 641 642 643 643
614 613 613 612 611 611 610 610 609 609 609 608 609 609 609 609 610 610 611 611 612 612 613 613 613 613 613 613 614 614 614 615 615 615 615 616 616 617 617 618 619 619 620 620 620 621 621 622 622 622 623 623 623 623 623 624 624 624 625 625 626 626 627 627 628 629 629 630 630 631 631 632 633 633 634 635 635 636 636 637 638 638 639 640 640 641
613 613 612 611 610 610 609 609 608 608 607 607 607 607 607 607 608 608 609 609 610 610 610 611 611 611 611 611 612 612 613 613 613 613 614 614 615 615 615 616 617 618 618 619 619 619 620 620 620 620 620 621 621 622 622 622 623 623 623 624 624 624 625 625 626 627 627 628 629 629 630 630 631 632 633 633 634 634 635 635 636 636 637 638 638 639
612 612 611 610 610 609 608 608 607 607 606 606 605 605 605 606 606 606 607 607 608 608 608 609 609 609 609 610 610 610 610 611 611 611 612 612 613 614 614 615 615 616 616 617 617 617 618 618 618 617 617 618 619 620 620 621 621 622 622 622 622 623 623 624 624 625 626 626 627 628 629 629 630 630 631 632 632 633 633 633 634 634 635 635 636 636